Wind_Speed
5 5 5 5 4 3 3 3 1 3 4 5 6 6 7 7 7 8 8 9 10 11 12 13 14 14 15 16 16 17 17 17 17 17 18 18 18 19 19 19 19 19 19 20 19 19 19 20 20
4 4 4 4 3 2 3 1 1 2 3 4 5 6 6 6 7 7 8 9 10 11 12 13 14 15 15 16 16 17 17 17 18 18 18 19 19 19 19 19 19 19 19 19 19 19 19 19 19
2 3 3 2 1 1 1 0 2 3 3 4 5 6 7 7 7 7 8 9 9 10 12 13 14 15 15 16 16 17 17 18 18 19 19 19 19 19 19 19 19 19 19 19 19 19 19 18 18
1 1 1 1 1 0 1 2 3 4 4 5 6 7 7 8 8 8 9 9 10 11 12 13 14 15 16 16 17 17 18 18 19 19 19 19 19 19 19 19 19 19 19 19 18 18 18 18 18
1 1 1 1 0 1 2 3 4 6 6 7 8 9 8 8 9 10 10 11 11 12 13 14 14 15 16 17 18 18 19 19 19 19 19 19 19 19 19 19 19 19 19 19 18 18 18 18 18
3 3 2 2 1 2 3 4 5 6 7 8 9 10 8 9 10 11 12 13 13 13 14 15 16 17 17 18 19 19 19 20 20 20 20 20 20 20 20 20 20 20 20 20 20 19 19 19 19
6 5 5 4 4 4 5 5 6 7 8 8 9 10 7 9 11 12 13 14 15 15 15 17 18 19 19 20 20 21 21 21 21 22 22 22 22 22 22 22 22 22 22 21 21 20 20 20 20
9 8 7 7 7 7 6 7 8 9 9 9 10 11 9 10 12 12 13 15 16 17 17 18 19 20 21 21 22 22 23 23 23 23 23 23 23 24 24 24 24 24 23 23 23 22 22 22 22
11 11 10 10 9 9 9 9 10 10 11 11 12 12 12 12 13 14 14 15 17 18 18 19 20 21 22 23 23 23 24 24 24 25 25 25 25 25 26 26 25 25 25 25 25 25 25 25 25
14 14 14 13 12 12 11 12 12 12 13 13 13 14 14 15 15 15 16 17 18 19 19 20 20 21 22 23 24 24 25 25 25 26 26 26 26 26 27 27 27 27 27 27 27 27 27 28 28
17 17 16 15 15 15 14 14 14 14 15 14 16 16 16 17 17 17 18 18 19 20 21 21 21 22 23 23 24 25 25 25 26 26 27 27 27 28 28 28 28 28 29 29 29 30 30 30 31
19 19 18 18 17 18 17 17 16 16 17 17 18 19 19 19 19 19 19 20 20 21 22 22 22 22 23 24 24 24 25 26 26 26 27 27 28 28 29 29 29 30 30 31 31 32 33 33 34
21 20 20 19 19 19 20 19 19 18 19 20 20 21 21 21 21 21 21 21 21 22 22 22 23 23 23 24 24 24 25 25 26 26 27 27 28 29 29 29 30 31 32 32 33 34 34 35 36
21 21 21 21 21 21 21 21 20 20 21 21 22 22 22 22 22 22 22 22 22 22 22 22 23 23 24 24 24 24 24 25 25 26 27 28 28 29 30 30 31 32 33 34 34 35 36 37 38
23 22 22 22 22 22 22 22 21 22 22 23 23 23 23 22 22 22 22 22 22 22 22 22 23 23 23 24 24 24 25 25 26 27 28 29 29 30 30 31 32 33 33 34 35 36 37 38 39
24 23 24 22 23 23 23 22 21 22 22 23 23 22 22 22 22 22 22 22 22 22 22 22 23 23 23 24 25 25 26 26 27 28 29 30 30 31 31 32 32 33 34 34 35 36 37 38 39
25 24 24 23 22 23 23 23 21 21 22 22 22 22 21 21 21 21 21 22 22 22 22 22 23 23 24 25 25 26 27 28 29 30 31 31 32 32 32 32 33 34 34 34 35 36 37 38 39
26 25 24 25 22 22 23 22 21 20 21 22 21 21 20 20 20 21 21 21 21 21 22 22 23 23 24 25 26 27 28 29 30 31 32 32 33 33 33 34 34 34 35 35 36 37 38 39 40
26 25 24 25 24 22 22 22 21 20 21 21 21 20 20 20 20 20 20 21 21 22 22 22 23 23 25 26 27 28 29 30 30 31 32 32 32 33 33 33 33 34 34 35 36 37 38 40 41
26 25 25 26 24 23 22 21 21 20 20 21 20 20 19 20 20 20 20 21 22 22 23 23 24 25 27 28 29 29 30 30 30 30 31 31 31 32 32 33 34 35 36 37 38 39 40 41 43
26 25 25 25 24 23 24 22 21 20 20 21 20 20 19 19 19 19 20 21 22 23 24 25 26 27 28 29 30 30 31 31 31 31 32 32 33 33 34 35 36 37 38 39 40 42 43 44 45
26 25 24 24 24 23 24 23 20 19 20 20 20 19 19 19 20 20 21 22 23 24 25 26 28 29 30 31 32 32 32 32 32 32 33 34 35 36 36 37 38 39 40 42 44 46 47 49 50
25 24 24 24 24 24 22 25 21 18 19 20 20 20 20 20 21 21 22 23 24 26 27 29 30 31 32 33 33 33 33 33 34 35 35 36 37 38 39 40 41 43 45 47 48 50 52 54 55
26 25 25 25 25 24 21 25 23 18 19 20 21 20 21 21 22 23 24 25 26 28 29 31 32 33 34 34 35 35 35 36 36 37 38 39 40 41 42 44 45 47 49 51 52 54 56 58 60
26 25 25 25 25 24 22 24 23 19 19 20 21 21 22 22 23 24 26 27 29 30 31 32 33 34 35 36 36 36 37 38 38 39 40 41 42 44 45 47 49 50 52 54 56 58 59 61 63
26 25 25 25 24 25 21 21 20 20 21 21 22 22 23 24 25 26 28 29 31 32 33 34 35 36 37 37 38 38 39 40 41 41 42 44 45 46 48 50 52 54 55 57 59 61 62 64 66
26 24 23 25 24 24 23 22 19 20 22 24 24 24 25 26 27 28 30 31 32 34 35 36 37 38 39 39 39 40 41 42 42 43 45 46 48 49 51 53 55 56 58 60 62 63 65 67 69
25 24 24 25 24 24 23 23 21 18 23 25 26 26 27 28 29 30 31 33 34 36 37 38 38 39 40 41 41 42 43 44 45 46 47 49 51 52 54 56 57 59 61 63 65 67 69 71 73
25 24 24 25 24 25 24 24 23 21 23 26 28 29 29 29 30 32 34 35 36 38 39 40 40 41 41 42 42 43 44 46 47 49 50 52 53 55 57 58 60 62 64 66 68 70 72 74 76
26 24 24 25 25 25 26 26 25 25 26 28 29 30 31 32 33 34 35 37 38 40 40 41 42 42 43 43 44 45 47 48 50 51 53 54 56 57 60 61 63 65 67 69 71 73 75 77 79
Wind_Direction
79 92 96 103 113 132 120 115 180 210 229 232 239 245 254 261 268 274 274 273 274 275 274 274 275 276 276 276 276 277 277 277 278 279 280 281 281 281 281 281 281 282 282 282 281 280 279 278 277
78 92 99 103 115 116 106 105 252 255 253 249 250 254 261 267 273 278 277 277 279 279 278 278 279 279 279 278 278 278 278 279 280 281 281 281 281 281 281 281 281 281 282 281 280 279 278 278 277
88 99 103 109 108 71 102 55 300 288 274 269 267 266 269 274 278 279 280 281 280 280 279 279 280 280 279 279 279 280 280 281 281 281 281 281 281 280 280 281 281 282 281 281 280 279 278 278 277
101 116 132 145 129 355 312 289 292 288 280 273 273 274 274 278 280 281 284 285 285 285 284 283 283 282 281 280 280 281 282 282 282 283 282 282 281 281 281 281 282 282 281 280 279 278 277 277 277
205 213 207 179 49 311 294 291 285 280 278 275 274 275 277 278 281 283 285 287 287 288 287 286 285 284 283 283 282 283 283 283 283 283 283 282 282 282 282 281 281 282 281 279 278 277 276 275 275
242 246 249 251 271 284 287 287 286 282 278 275 275 277 278 275 279 282 284 287 287 287 287 286 286 286 285 284 284 283 283 283 284 284 283 282 282 282 282 281 281 281 280 279 278 277 275 274 274
247 253 258 263 268 274 281 285 285 285 283 282 281 282 287 280 279 281 282 283 284 285 285 285 286 286 286 285 285 284 284 284 283 284 283 282 282 282 281 281 281 280 279 278 276 275 274 274 273
249 253 258 262 264 269 274 278 282 284 285 284 283 286 293 281 283 283 282 283 283 284 284 284 285 285 285 285 285 284 284 284 283 283 283 283 282 281 281 280 280 279 278 276 275 273 272 272 272
252 253 255 258 262 265 268 272 277 280 281 282 283 286 289 285 285 285 284 284 284 283 284 283 283 284 284 284 284 284 284 284 284 284 283 283 282 281 281 280 279 278 276 275 273 272 271 271 271
253 255 258 260 262 264 267 269 273 275 277 279 281 284 285 286 287 288 287 286 286 286 285 285 284 284 284 284 284 284 284 284 284 284 284 283 282 281 280 279 278 277 276 275 273 272 271 271 270
255 257 260 262 264 266 267 268 270 273 276 279 279 281 282 285 287 287 287 286 287 287 287 287 287 286 285 285 285 285 285 285 285 285 284 284 283 282 280 279 278 277 276 275 274 273 272 271 270
256 258 260 262 264 265 267 268 269 271 273 275 277 279 281 283 285 285 286 286 287 287 288 288 288 288 288 287 286 286 286 286 286 285 284 284 284 283 281 280 279 277 276 275 274 273 272 271 270
256 259 261 262 264 266 268 268 269 270 271 274 276 278 280 281 282 283 285 286 287 288 289 289 290 289 289 288 288 288 288 288 288 287 287 286 285 284 283 282 280 279 277 276 276 275 274 273 272
257 259 261 262 265 267 268 268 268 269 271 273 275 277 278 279 281 282 284 285 286 287 288 289 290 290 290 290 290 290 290 289 289 289 288 287 287 286 285 283 282 280 279 279 278 277 276 275 274
256 259 261 263 266 268 269 268 269 269 271 273 274 276 277 278 280 281 283 284 285 286 288 289 289 289 290 290 291 291 291 290 290 290 290 289 288 287 286 285 283 282 281 281 280 279 278 278 277
256 259 261 263 266 268 270 269 269 270 272 273 274 275 275 277 278 280 281 282 283 285 286 287 288 288 289 289 289 289 290 290 290 290 290 290 289 288 287 285 285 284 284 283 282 281 280 279 279
254 258 263 264 264 268 271 272 270 270 272 274 274 274 274 275 276 278 280 281 282 284 285 286 287 288 289 289 289 290 290 291 291 291 290 290 289 288 287 286 286 285 285 284 284 283 283 282 282
254 259 264 267 265 268 270 272 273 271 273 274 274 273 273 274 275 277 279 280 281 283 286 287 288 289 290 290 291 291 291 292 291 291 290 290 289 288 287 287 287 286 286 286 285 285 284 284 283
253 258 263 267 268 267 269 271 274 274 274 275 273 273 274 275 277 278 280 281 283 285 287 289 291 291 291 292 292 292 293 293 292 291 291 290 290 290 290 289 288 288 288 288 287 287 287 287 286
252 257 261 264 266 268 269 271 273 274 274 274 274 274 275 276 278 280 282 283 285 288 290 292 293 293 294 294 294 294 294 294 293 293 292 291 291 291 291 290 290 290 289 289 289 289 289 290 289
251 255 258 262 264 267 270 271 273 274 273 273 273 274 275 277 279 282 283 285 287 290 292 293 294 295 296 295 295 295 295 294 294 293 292 292 292 291 291 291 291 291 291 291 291 291 291 291 291
250 254 258 261 264 266 270 272 270 273 273 272 273 274 276 278 281 283 284 287 289 292 294 294 295 295 296 296 296 296 296 295 294 293 292 292 292 292 291 291 291 291 291 291 291 292 292 291 291
249 253 257 260 263 266 271 273 272 269 271 271 273 275 278 280 282 284 285 288 291 293 294 295 295 295 296 296 296 295 295 294 294 293 292 292 292 292 292 292 292 292 292 293 293 293 293 293 292
247 251 255 259 262 265 268 273 274 271 269 271 274 276 279 281 283 285 287 290 292 294 295 295 295 295 296 296 296 294 294 294 293 293 292 292 292 292 293 293 293 293 293 293 293 293 294 294 293
247 250 254 256 260 264 264 269 275 277 272 272 274 278 280 283 284 286 289 291 293 294 295 295 295 295 295 296 295 293 293 293 292 292 292 292 292 293 293 293 293 293 293 293 294 294 295 295 295
244 247 251 255 258 264 265 267 275 278 276 276 277 279 282 284 286 288 290 292 293 294 294 294 295 295 295 295 294 293 293 293 292 292 292 293 293 293 294 294 294 294 295 295 295 295 296 296 296
241 245 249 254 259 265 269 269 268 275 278 280 281 282 284 285 287 289 291 293 294 295 294 294 294 295 295 295 294 293 293 293 293 293 293 293 294 294 294 295 295 296 296 296 297 297 297 297 297
241 243 247 253 259 262 265 270 270 270 276 280 283 284 286 287 289 290 292 294 295 295 295 295 295 295 295 294 294 293 293 293 293 293 294 294 295 295 296 297 297 298 298 298 298 298 298 298 299
241 244 249 253 258 263 267 269 274 277 278 280 283 286 287 289 290 292 293 294 295 296 296 295 295 295 295 295 294 294 294 294 294 295 295 296 297 297 298 299 299 299 300 300 300 300 300 300 300
242 244 248 253 258 261 266 269 276 279 280 281 283 286 288 289 291 292 294 295 296 296 296 296 296 296 296 295 295 295 295 295 296 296 297 298 298 299 300 300 301 301 302 302 302 302 302 302 302
Height
5859 5859 5859 5860 5861 5861 5860 5861 5861 5863 5863 5864 5865 5866 5867 5868 5870 5873 5871 5871 5872 5872 5872 5873 5873 5873 5874 5874 5874 5874 5874 5874 5874 5874 5874 5874 5874 5874 5874 5874 5874 5874 5873 5873 5873 5873 5873 5873 5873
5860 5860 5861 5861 5861 5861 5861 5861 5862 5863 5864 5864 5865 5865 5866 5867 5868 5868 5868 5869 5870 5870 5870 5871 5871 5871 5871 5871 5871 5872 5872 5872 5872 5871 5871 5871 5871 5871 5871 5871 5871 5871 5870 5870 5870 5870 5870 5870 5870
5860 5861 5862 5862 5861 5861 5861 5862 5862 5863 5863 5864 5864 5865 5865 5866 5867 5867 5867 5867 5868 5868 5869 5869 5869 5869 5869 5869 5869 5869 5869 5869 5869 5869 5869 5868 5868 5868 5868 5868 5868 5867 5867 5867 5867 5867 5867 5867 5867
5861 5862 5862 5863 5861 5861 5862 5862 5862 5862 5863 5863 5863 5864 5864 5865 5865 5865 5865 5866 5866 5867 5867 5866 5867 5867 5867 5866 5866 5866 5866 5866 5866 5866 5866 5865 5865 5865 5865 5864 5864 5864 5864 5864 5864 5864 5864 5864 5864
5861 5862 5862 5862 5861 5861 5861 5862 5862 5862 5862 5862 5862 5862 5863 5863 5863 5863 5863 5864 5864 5865 5865 5864 5864 5864 5864 5864 5864 5864 5864 5863 5863 5863 5863 5862 5862 5862 5862 5861 5861 5861 5861 5861 5861 5861 5861 5861 5861
5861 5861 5862 5861 5861 5861 5861 5861 5861 5861 5861 5861 5861 5861 5862 5862 5862 5862 5862 5862 5862 5862 5862 5862 5862 5861 5861 5861 5861 5861 5861 5860 5860 5860 5860 5859 5859 5858 5858 5858 5858 5857 5857 5857 5857 5857 5857 5857 5857
5861 5861 5860 5860 5860 5861 5861 5861 5861 5861 5861 5860 5860 5860 5860 5861 5860 5860 5860 5859 5859 5859 5860 5859 5859 5858 5858 5858 5858 5857 5857 5857 5856 5856 5856 5856 5855 5855 5854 5854 5854 5853 5853 5853 5853 5853 5853 5853 5853
5859 5860 5859 5859 5859 5860 5860 5860 5860 5860 5860 5859 5859 5858 5859 5859 5858 5858 5858 5857 5857 5857 5857 5856 5855 5855 5855 5854 5854 5854 5853 5853 5852 5852 5852 5851 5851 5851 5850 5850 5849 5849 5849 5849 5849 5849 5849 5849 5849
5857 5859 5858 5858 5858 5858 5858 5858 5858 5858 5858 5858 5857 5857 5857 5856 5856 5856 5855 5855 5854 5854 5853 5853 5852 5851 5851 5850 5850 5849 5849 5849 5848 5848 5847 5847 5846 5846 5845 5845 5845 5844 5844 5844 5844 5844 5844 5844 5844
5855 5855 5855 5856 5856 5856 5856 5856 5856 5856 5856 5856 5855 5855 5854 5853 5853 5853 5852 5852 5851 5850 5850 5849 5849 5848 5847 5846 5846 5845 5844 5844 5843 5843 5842 5842 5841 5841 5840 5840 5839 5839 5839 5838 5838 5838 5838 5838 5838
5852 5852 5853 5853 5853 5853 5854 5854 5854 5854 5853 5853 5853 5852 5852 5851 5850 5850 5849 5849 5848 5847 5846 5845 5845 5844 5843 5842 5841 5840 5840 5839 5838 5838 5837 5836 5836 5835 5835 5834 5834 5833 5833 5832 5832 5832 5832 5832 5832
5849 5849 5849 5850 5850 5850 5850 5851 5851 5851 5851 5850 5849 5849 5848 5848 5847 5846 5846 5845 5844 5843 5842 5841 5840 5839 5839 5838 5837 5836 5835 5834 5833 5832 5831 5831 5830 5829 5829 5828 5828 5827 5826 5826 5825 5825 5825 5824 5824
5845 5845 5846 5846 5846 5846 5846 5847 5847 5847 5847 5846 5845 5845 5845 5844 5843 5843 5842 5841 5840 5839 5838 5837 5836 5835 5834 5833 5832 5831 5830 5829 5828 5826 5826 5825 5824 5823 5822 5822 5821 5820 5819 5819 5818 5817 5817 5816 5816
5841 5841 5841 5842 5842 5842 5842 5842 5843 5843 5842 5842 5841 5841 5840 5840 5839 5838 5838 5837 5836 5835 5834 5833 5832 5831 5829 5828 5827 5826 5825 5823 5822 5821 5820 5819 5818 5817 5816 5815 5814 5813 5812 5811 5810 5809 5809 5808 5807
5835 5836 5837 5837 5837 5837 5838 5838 5838 5838 5837 5837 5837 5836 5836 5835 5834 5834 5833 5832 5831 5830 5829 5828 5827 5826 5825 5824 5822 5821 5819 5818 5817 5815 5814 5812 5811 5810 5809 5807 5806 5805 5804 5803 5802 5801 5800 5799 5799
5830 5831 5832 5833 5832 5832 5834 5834 5834 5832 5832 5832 5832 5832 5831 5831 5830 5829 5829 5828 5827 5826 5825 5824 5823 5821 5820 5819 5817 5815 5814 5812 5811 5809 5807 5806 5804 5803 5801 5800 5798 5797 5796 5795 5793 5792 5791 5790 5789
5825 5826 5826 5827 5828 5827 5828 5828 5828 5827 5827 5827 5826 5827 5826 5826 5825 5825 5824 5823 5822 5821 5820 5819 5818 5817 5815 5813 5812 5810 5808 5806 5805 5803 5801 5799 5797 5795 5794 5792 5791 5789 5788 5786 5785 5783 5782 5781 5780
5819 5820 5821 5821 5822 5822 5822 5822 5822 5822 5822 5821 5821 5822 5822 5821 5821 5820 5819 5818 5818 5817 5815 5814 5813 5811 5810 5808 5806 5804 5802 5800 5798 5796 5794 5792 5790 5788 5786 5785 5783 5781 5780 5778 5776 5774 5773 5771 5769
5814 5815 5815 5815 5816 5817 5817 5817 5817 5817 5817 5816 5816 5817 5817 5816 5816 5815 5814 5813 5813 5811 5810 5809 5808 5806 5804 5802 5800 5798 5796 5794 5791 5789 5787 5785 5782 5780 5778 5777 5775 5773 5771 5769 5767 5765 5763 5761 5759
5808 5809 5810 5810 5810 5811 5811 5812 5812 5812 5811 5811 5811 5812 5811 5811 5811 5810 5809 5808 5807 5806 5805 5803 5802 5800 5798 5796 5794 5791 5789 5787 5784 5782 5780 5777 5775 5773 5771 5769 5767 5765 5763 5760 5758 5756 5753 5751 5748
5802 5804 5804 5805 5805 5805 5806 5807 5807 5807 5806 5806 5806 5806 5806 5806 5806 5805 5804 5803 5802 5801 5799 5798 5796 5794 5792 5789 5787 5785 5782 5780 5777 5775 5773 5770 5768 5765 5763 5761 5758 5756 5754 5751 5748 5746 5743 5741 5738
5796 5798 5799 5799 5799 5800 5801 5801 5803 5802 5801 5801 5801 5801 5801 5801 5801 5800 5799 5798 5797 5795 5794 5792 5790 5787 5785 5782 5780 5777 5775 5772 5770 5768 5765 5763 5760 5757 5755 5752 5750 5747 5744 5741 5738 5735 5731 5728 5725
5791 5792 5793 5793 5793 5794 5795 5794 5797 5797 5797 5796 5796 5796 5796 5796 5795 5795 5794 5793 5791 5789 5788 5785 5783 5780 5778 5775 5773 5770 5767 5765 5762 5760 5757 5754 5752 5749 5746 5743 5740 5737 5734 5730 5727 5723 5719 5715 5711
5785 5786 5787 5787 5787 5789 5790 5788 5790 5792 5792 5791 5791 5791 5791 5791 5790 5789 5788 5787 5785 5783 5781 5779 5776 5774 5771 5768 5765 5762 5760 5757 5754 5751 5749 5746 5743 5740 5736 5733 5729 5726 5722 5718 5714 5710 5706 5701 5696
5779 5781 5782 5782 5782 5784 5785 5783 5785 5786 5786 5786 5786 5786 5785 5785 5784 5783 5782 5781 5779 5776 5774 5772 5769 5766 5763 5760 5757 5754 5751 5749 5746 5743 5740 5736 5733 5730 5726 5722 5718 5714 5710 5705 5701 5696 5691 5685 5680
5773 5775 5777 5778 5777 5777 5778 5779 5781 5780 5779 5780 5780 5780 5780 5779 5778 5777 5776 5774 5772 5769 5767 5764 5761 5759 5755 5752 5749 5746 5743 5740 5736 5733 5730 5726 5723 5719 5715 5711 5706 5701 5697 5691 5686 5681 5676 5669 5663
5767 5769 5771 5771 5772 5772 5773 5774 5776 5775 5773 5773 5774 5774 5773 5773 5772 5770 5769 5767 5764 5762 5759 5756 5753 5750 5747 5743 5740 5737 5734 5730 5727 5723 5720 5716 5712 5707 5703 5698 5693 5688 5682 5677 5671 5665 5659 5652 5646
5762 5764 5765 5765 5766 5767 5769 5768 5770 5771 5769 5768 5767 5767 5767 5766 5765 5763 5761 5759 5756 5754 5751 5748 5745 5741 5738 5734 5731 5727 5724 5720 5716 5713 5709 5704 5700 5695 5690 5685 5679 5673 5667 5661 5654 5648 5640 5633 5626
5756 5758 5759 5760 5761 5761 5762 5765 5764 5765 5764 5762 5761 5760 5759 5759 5757 5755 5753 5750 5748 5745 5742 5739 5735 5732 5728 5724 5721 5717 5713 5709 5705 5701 5696 5692 5687 5681 5676 5670 5664 5657 5651 5644 5636 5629 5621 5613 5605
5749 5751 5753 5755 5755 5755 5756 5760 5758 5757 5756 5755 5754 5753 5752 5751 5749 5747 5745 5742 5739 5736 5733 5729 5725 5722 5718 5714 5710 5706 5702 5698 5693 5688 5683 5678 5673 5667 5661 5654 5648 5641 5633 5625 5617 5610 5601 5592 5583